• en Suisse
  • Liste des pays
  • À 7 jours
  • Température de l'eau
  • Carte satellitaire
  • Carte météo
  • Widgets météo
  • user-avatar
    Se connecter

    Météo par heure à Serekhovychi

    Ce jour, 18 Juillet, Mercredi

    Heure Température Précipitation Vent Pression Humidité
    00:00 +19°C° 0 mm 1 m/s 737 mmHg 93%
    01:00 +19°C° 0 mm 1 m/s 737 mmHg 93%
    02:00 +19°C° 0 mm 1 m/s 737 mmHg 94%
    03:00 +19°C° 0 mm 1 m/s 737 mmHg 95%
    04:00 +19°C° 0 mm 1 m/s 737 mmHg 96%
    05:00 +18°C° 0 mm 2 m/s 737 mmHg 96%
    06:00 +19°C° 0 mm 2 m/s 737 mmHg 92%
    07:00 +21°C° 0 mm 2 m/s 737 mmHg 89%
    08:00 +23°C° 0 mm 2 m/s 737 mmHg 84%
    09:00 +24°C° 0,4 mm 2 m/s 737 mmHg 81%
    10:00 +25°C° 0,4 mm 3 m/s 737 mmHg 79%
    11:00 +26°C° 0,4 mm 3 m/s 737 mmHg 76%
    12:00 +27°C° 0,7 mm 3 m/s 737 mmHg 75%
    13:00 +27°C° 0,7 mm 3 m/s 737 mmHg 74%
    14:00 +28°C° 0,7 mm 3 m/s 737 mmHg 74%
    15:00 +28°C° 0,9 mm 3 m/s 737 mmHg 74%
    16:00 +28°C° 0,9 mm 3 m/s 737 mmHg 75%
    17:00 +28°C° 0,9 mm 3 m/s 737 mmHg 75%
    18:00 +27°C° 0,4 mm 3 m/s 738 mmHg 80%
    19:00 +25°C° 0,4 mm 3 m/s 738 mmHg 84%
    20:00 +24°C° 0,4 mm 2 m/s 738 mmHg 88%
    21:00 +24°C° 0,2 mm 3 m/s 738 mmHg 91%
    22:00 +22°C° 0,2 mm 3 m/s 738 mmHg 93%
    23:00 +21°C° 0,2 mm 3 m/s 738 mmHg 96%

    Demain, 19 Juillet, Jeudi

    Heure Température Précipitation Vent Pression Humidité
    00:00 +20°C° 0 mm 3 m/s 738 mmHg 97%
    01:00 +20°C° 0 mm 2 m/s 739 mmHg 97%
    02:00 +19°C° 0 mm 2 m/s 739 mmHg 98%
    03:00 +19°C° 0 mm 2 m/s 739 mmHg 98%
    04:00 +19°C° 0 mm 2 m/s 739 mmHg 98%
    05:00 +19°C° 0 mm 2 m/s 739 mmHg 98%
    06:00 +20°C° 0 mm 2 m/s 739 mmHg 94%
    07:00 +21°C° 0 mm 3 m/s 739 mmHg 91%
    08:00 +22°C° 0 mm 3 m/s 740 mmHg 88%
    09:00 +24°C° 0,2 mm 3 m/s 740 mmHg 80%
    10:00 +26°C° 0,2 mm 4 m/s 740 mmHg 73%
    11:00 +27°C° 0,2 mm 4 m/s 740 mmHg 66%
    12:00 +28°C° 0 mm 4 m/s 740 mmHg 62%
    13:00 +28°C° 0 mm 5 m/s 740 mmHg 59%
    14:00 +29°C° 0 mm 5 m/s 740 mmHg 55%
    15:00 +29°C° 0 mm 5 m/s 740 mmHg 57%
    16:00 +28°C° 0 mm 5 m/s 740 mmHg 59%
    17:00 +28°C° 0 mm 5 m/s 740 mmHg 61%
    18:00 +27°C° 0,2 mm 4 m/s 740 mmHg 68%
    19:00 +25°C° 0,2 mm 4 m/s 740 mmHg 75%
    20:00 +22°C° 0,2 mm 3 m/s 740 mmHg 83%
    21:00 +21°C° 0 mm 3 m/s 740 mmHg 86%
    22:00 +20°C° 0 mm 3 m/s 740 mmHg 90%
    23:00 +20°C° 0 mm 3 m/s 740 mmHg 93%

    Après-demain, 20 Juillet, Vendredi

    Heure Température Précipitation Vent Pression Humidité
    00:00 +19°C° 0 mm 3 m/s 740 mmHg 94%
    01:00 +19°C° 0 mm 3 m/s 740 mmHg 95%
    02:00 +19°C° 0 mm 3 m/s 740 mmHg 96%
    03:00 +19°C° 0 mm 4 m/s 740 mmHg 96%
    04:00 +19°C° 0 mm 4 m/s 740 mmHg 96%
    05:00 +19°C° 0 mm 4 m/s 740 mmHg 95%
    06:00 +19°C° 0 mm 4 m/s 741 mmHg 94%
    07:00 +20°C° 0 mm 4 m/s 741 mmHg 93%
    08:00 +20°C° 0 mm 4 m/s 741 mmHg 91%
    09:00 +21°C° 0,1 mm 4 m/s 741 mmHg 89%
    10:00 +21°C° 0,1 mm 4 m/s 741 mmHg 86%
    11:00 +22°C° 0,1 mm 4 m/s 741 mmHg 83%
    12:00 +23°C° 0,5 mm 4 m/s 741 mmHg 79%
    13:00 +25°C° 0,5 mm 4 m/s 741 mmHg 75%
    14:00 +26°C° 0,5 mm 4 m/s 741 mmHg 71%
    15:00 +26°C° 1,2 mm 5 m/s 741 mmHg 73%
    16:00 +26°C° 1,2 mm 5 m/s 741 mmHg 76%
    17:00 +26°C° 1,2 mm 5 m/s 741 mmHg 79%
    18:00 +25°C° 0,3 mm 4 m/s 741 mmHg 81%
    19:00 +23°C° 0,3 mm 4 m/s 741 mmHg 84%
    20:00 +22°C° 0,3 mm 4 m/s 741 mmHg 87%
    21:00 +21°C° 0 mm 4 m/s 741 mmHg 89%
    22:00 +20°C° 0 mm 4 m/s 741 mmHg 90%
    23:00 +20°C° 0 mm 4 m/s 741 mmHg 92%

    21 Juillet, Samedi

    Heure Température Précipitation Vent Pression Humidité
    00:00 +19°C° 0,1 mm 4 m/s 741 mmHg 93%
    01:00 +19°C° 0,1 mm 4 m/s 741 mmHg 94%
    02:00 +19°C° 0,1 mm 4 m/s 741 mmHg 95%
    03:00 +18°C° 0 mm 4 m/s 741 mmHg 95%
    04:00 +18°C° 0 mm 4 m/s 742 mmHg 96%
    05:00 +17°C° 0 mm 4 m/s 742 mmHg 96%
    06:00 +18°C° 0 mm 4 m/s 742 mmHg 93%
    07:00 +19°C° 0 mm 4 m/s 742 mmHg 89%
    08:00 +20°C° 0 mm 4 m/s 742 mmHg 85%
    09:00 +21°C° 0 mm 4 m/s 742 mmHg 79%
    10:00 +23°C° 0 mm 4 m/s 742 mmHg 72%
    11:00 +25°C° 0 mm 5 m/s 743 mmHg 65%
    12:00 +26°C° 0,1 mm 5 m/s 742 mmHg 62%
    13:00 +27°C° 0,1 mm 5 m/s 742 mmHg 59%
    14:00 +27°C° 0,1 mm 5 m/s 742 mmHg 56%
    15:00 +27°C° 0 mm 4 m/s 742 mmHg 56%
    16:00 +27°C° 0 mm 4 m/s 742 mmHg 57%
    17:00 +27°C° 0 mm 4 m/s 742 mmHg 57%
    18:00 +25°C° 0 mm 4 m/s 742 mmHg 63%
    19:00 +24°C° 0 mm 3 m/s 742 mmHg 69%
    20:00 +21°C° 0 mm 2 m/s 742 mmHg 74%
    21:00 +20°C° 0 mm 2 m/s 742 mmHg 74%
    22:00 +19°C° 0 mm 2 m/s 742 mmHg 74%
    23:00 +18°C° 0 mm 2 m/s 742 mmHg 74%

    22 Juillet, Dimanche

    Heure Température Précipitation Vent Pression Humidité
    00:00 +17°C° 0 mm 2 m/s 742 mmHg 75%
    01:00 +17°C° 0 mm 2 m/s 742 mmHg 75%
    02:00 +16°C° 0 mm 2 m/s 742 mmHg 75%
    03:00 +16°C° 0 mm 2 m/s 742 mmHg 76%
    04:00 +15°C° 0 mm 1 m/s 742 mmHg 77%
    05:00 +15°C° 0 mm 1 m/s 741 mmHg 78%
    06:00 +18°C° 0 mm 1 m/s 742 mmHg 74%
    07:00 +20°C° 0 mm 1 m/s 742 mmHg 69%
    08:00 +22°C° 0 mm 1 m/s 742 mmHg 65%
    09:00 +23°C° 0 mm 1 m/s 742 mmHg 61%
    10:00 +24°C° 0 mm 1 m/s 742 mmHg 56%
    11:00 +26°C° 0 mm 1 m/s 742 mmHg 52%
    12:00 +27°C° 0 mm 1 m/s 741 mmHg 50%
    13:00 +27°C° 0 mm 1 m/s 741 mmHg 48%
    14:00 +28°C° 0 mm 1 m/s 741 mmHg 46%
    15:00 +28°C° 0 mm 1 m/s 741 mmHg 47%
    16:00 +28°C° 0 mm 1 m/s 741 mmHg 48%
    17:00 +28°C° 0 mm 1 m/s 741 mmHg 49%
    18:00 +26°C° 0 mm 1 m/s 741 mmHg 56%
    19:00 +25°C° 0 mm 1 m/s 741 mmHg 63%
    20:00 +23°C° 0 mm 1 m/s 741 mmHg 69%
    21:00 +22°C° 0 mm 1 m/s 741 mmHg 72%
    22:00 +21°C° 0 mm 1 m/s 741 mmHg 75%
    23:00 +20°C° 0 mm 1 m/s 742 mmHg 78%

    23 Juillet, Lundi

    Heure Température Précipitation Vent Pression Humidité
    00:00 +20°C° 0 mm 1 m/s 742 mmHg 81%
    01:00 +19°C° 0 mm 2 m/s 742 mmHg 84%
    02:00 +18°C° 0 mm 2 m/s 741 mmHg 87%
    03:00 +18°C° 0 mm 2 m/s 742 mmHg 89%
    04:00 +18°C° 0 mm 2 m/s 742 mmHg 91%
    05:00 +18°C° 0 mm 1 m/s 742 mmHg 93%
    06:00 +19°C° 0 mm 2 m/s 743 mmHg 87%
    07:00 +21°C° 0 mm 2 m/s 743 mmHg 82%
    08:00 +24°C° 0 mm 2 m/s 743 mmHg 76%
    09:00 +25°C° 0,1 mm 2 m/s 743 mmHg 70%
    10:00 +26°C° 0,1 mm 3 m/s 743 mmHg 64%
    11:00 +27°C° 0,1 mm 3 m/s 743 mmHg 58%
    12:00 +28°C° 0,1 mm 3 m/s 743 mmHg 57%
    13:00 +28°C° 0,1 mm 3 m/s 743 mmHg 55%
    14:00 +29°C° 0,1 mm 4 m/s 743 mmHg 53%
    15:00 +28°C° 0,2 mm 4 m/s 743 mmHg 56%
    16:00 +28°C° 0,2 mm 4 m/s 743 mmHg 58%
    17:00 +28°C° 0,2 mm 4 m/s 743 mmHg 61%
    18:00 +26°C° 0,2 mm 4 m/s 743 mmHg 68%
    19:00 +25°C° 0,2 mm 3 m/s 743 mmHg 74%
    20:00 +22°C° 0,2 mm 3 m/s 743 mmHg 81%
    21:00 +21°C° 0 mm 3 m/s 744 mmHg 84%
    22:00 +20°C° 0 mm 3 m/s 744 mmHg 86%
    23:00 +19°C° 0 mm 3 m/s 744 mmHg 89%
    Voir plus